Regional Weather Roundup
Issued by NWS

Home | Current Version | Previous Version | Graphics & Text | Print | Product List | Glossary On
Versions: 1 2 3 4 5 6 7 8 9 10 11 12 13 14 15 16 17 18 19 20 21 22 23 24 25 26 27 28 29 30 31 32 33 34 35 36 37 38 39 40 41 42 43 44 45 46 47 48 49 50
832
ASUS44 KLIX 300511
RWRLA
LOUISIANA WEATHER ROUNDUP
NATIONAL WEATHER SERVICE NEW ORLEANS LA
1200 AM CDT MON MAR 30 2015

NOTE: "FAIR" INDICATES FEW OR NO CLOUDS BELOW 12,000 FEET WITH NO
      SIGNIFICANT WEATHER AND/OR OBSTRUCTIONS TO VISIBILITY.
      SKY/WX - SKY CONDITION AND SIGNIFICANT WEATHER.
      TMP - AIR TEMPERATURE.    DP   - DEWPOINT TEMPERATURE.
      RH  - RELATIVE HUMIDITY.  PRES - PRESSURE.
      HX  - HEAT INDEX.         WCI  - WIND CHILL INDEX.

*  THESE STATIONS ARE NOT NWS OR FAA STATIONS AND ARE NOT UNDER
   NWS QUALITY CONTROL.

LAZ040-048-061>063-065-066-069-300600-
SOUTHEAST LOUISIANA

CITY           SKY/WX    TMP DP  RH WIND       PRES   REMARKS
N.O. AUDUBON     N/A     67  67 100 MISG        N/A
N.O. INTL ARPT PTCLDY    65  61  87 S3        30.21F
N.O. LAKEFRONT CLEAR     66  61  84 S7        30.22F
SLIDELL        MOCLDY    64  63  96 S5        30.21F
BATON ROUGE    MOCLDY    67  60  78 S9        30.20S
BOOTHVILLE     MOCLDY    66  63  90 SE5       30.24F
BELLE CHASSE   CLEAR     63  60  90 S3        30.21F
BOGALUSA*        N/A     65  61  86 S8        30.22S
GALLIANO*      CLEAR     65  62  93 S5        30.22F
NEW ROADS*     FAIR      65  60  83 S7        30.18F
GONZALES*      FAIR      64  62  93 CALM      30.21S
HAMMOND*       CLEAR     63  59  88 S3        30.23R
HOUMA*         CLEAR     67  64  90 S5        30.21F
PORT FOURCHON* PTCLDY    70  64  83 CALM      30.25F

$$

LAZ041-044-053-054-300600-
SOUTHWEST LOUISIANA

CITY           SKY/WX    TMP DP  RH WIND       PRES   REMARKS
LAKE CHARLES   CLEAR     66  64  93 S6        30.16F
LAFAYETTE      PTCLDY    65  63  93 S3        30.19S
PATTERSON      CLEAR     63  61  94 S5        30.22S
SALT POINT       N/A     66  64  93 VRB3      30.19S
NEW IBERIA     PTCLDY    65  63  93 S7        30.20S
CHENAULT AIRPK CLEAR     62  62  98 S6        30.17F

$$

LAZ027-028-300600-
CENTRAL LOUISIANA

CITY           SKY/WX    TMP DP  RH WIND       PRES   REMARKS
FORT POLK      CLEAR     65  61  87 SW7       30.16R
ALEXANDRIA INT CLEAR     65  60  84 SW6       30.16R
ALEXANDRIA     PTCLDY    64  60  87 SW7       30.17R

$$

LAZ001-002-300600-
NORTHWEST LOUISIANA

CITY           SKY/WX    TMP DP  RH WIND       PRES   REMARKS
SHREVEPORT     CLEAR     68  59  73 S9        30.13R
BARKSDALE AFB  CLEAR     68  58  71 S10       30.12R
DTN SHREVEPORT CLEAR     68  58  70 S15       30.12R

$$

LAZ014-016-300600-
NORTHEAST LOUISIANA

CITY           SKY/WX    TMP DP  RH WIND       PRES   REMARKS
MONROE         CLEAR     67  58  72 S9        30.15R
TALLULAH       CLEAR     68  57  68 SW5       30.17R

$$




USA.gov is the U.S. government's official web portal to all federal, state and local government web resources and services.